FW7184 Weather Reports


time (UTC)temp
C
wind
direction
speed
KPH
gust
KPH
rain 1hr
cm
rain 24hr
cm
rain mn
cm
humidity
%
barometer
mb
20260510190519 21 115 0.0 0.0 0.00 0.00 0.00 73 1013.0
20260510190016 21 126 0.0 0.0 0.00 0.00 0.00 73 1012.9
20260510185512 21 129 0.0 0.0 0.00 0.00 0.00 72 1013.2
20260510185010 21 125 0.0 0.0 0.00 0.00 0.00 72 1013.4
20260510184507 21 115 0.0 0.0 0.00 0.00 0.00 75 1013.2
20260510184002 20 137 1.6 1.6 0.00 0.00 0.00 76 1013.4
20260510183458 20 95 0.0 0.0 0.00 0.00 0.00 76 1013.2
20260510182954 20 125 0.0 0.0 0.00 0.00 0.00 75 1013.3
20260510182450 20 132 0.0 0.0 0.00 0.00 0.00 78 1013.5
20260510181945 19 122 0.0 0.0 0.00 0.00 0.00 77 1013.5
20260510181444 19 129 0.0 0.0 0.00 0.00 0.00 77 1013.4
20260510180939 18 131 0.0 0.0 0.00 0.00 0.00 80 1013.3
20260510180437 18 122 0.0 0.0 0.00 0.00 0.00 80 1013.2
20260510175933 18 125 0.0 0.0 0.00 0.00 0.00 79 1013.1
20260510175429 18 121 0.0 0.0 0.00 0.00 0.00 79 1013.2
20260510174925 18 127 0.0 0.0 0.00 0.00 0.00 79 1013.0
20260510174424 18 121 0.0 0.0 0.00 0.00 0.00 79 1013.2
20260510173919 18 136 0.0 0.0 0.00 0.00 0.00 79 1013.5
20260510173415 18 114 0.0 0.0 0.00 0.00 0.00 79 1013.5
20260510172912 18 124 0.0 0.0 0.00 0.00 0.00 78 1013.3
20260510172408 19 115 0.0 0.0 0.00 0.00 0.00 77 1013.6
20260510171904 20 106 1.6 1.6 0.00 0.00 0.00 76 1013.4
20260510171402 19 130 0.0 0.0 0.00 0.00 0.00 77 1013.4
20260510170858 19 222 1.6 3.2 0.00 0.00 0.00 77 1013.3
20260510170355 19 349 1.6 1.6 0.00 0.00 0.00 77 1013.2
20260510165849 19 131 0.0 0.0 0.00 0.00 0.00 79 1013.5
20260510165346 19 87 1.6 1.6 0.00 0.00 0.00 77 1013.8
20260510164844 19 92 1.6 1.6 0.00 0.00 0.00 77 1013.6
20260510164341 18 126 0.0 0.0 0.00 0.00 0.00 79 1013.7
20260510163840 18 129 0.0 1.6 0.00 0.00 0.00 80 1013.5
20260510163338 18 126 1.6 1.6 0.00 0.00 0.00 81 1013.6
20260510162838 17 114 0.0 0.0 0.00 0.00 0.00 80 1013.5
20260510162335 17 141 0.0 0.0 0.00 0.00 0.00 82 1013.7
20260510161830 17 126 0.0 0.0 0.00 0.00 0.00 82 1013.6
20260510161327 17 168 3.2 3.2 0.00 0.00 0.00 83 1013.6
20260510160824 17 116 0.0 0.0 0.00 0.00 0.00 83 1013.6
20260510160315 17 146 1.6 1.6 0.00 0.00 0.00 84 1013.7
20260510155814 16 160 1.6 1.6 0.00 0.00 0.00 85 1014.0
20260510155311 16 117 0.0 0.0 0.00 0.00 0.00 86 1013.9
20260510154807 16 87 1.6 1.6 0.00 0.00 0.00 86 1013.9
20260510154303 16 111 0.0 0.0 0.00 0.00 0.00 87 1013.9
20260510153758 16 156 3.2 3.2 0.00 0.00 0.00 87 1013.7
20260510153254 15 180 3.2 4.8 0.00 0.00 0.00 88 1014.0
20260510152751 15 135 1.6 1.6 0.00 0.00 0.00 89 1013.8
20260510152247 15 114 0.0 0.0 0.00 0.00 0.00 89 1013.8
20260510151744 15 217 0.0 1.6 0.00 0.00 0.00 89 1013.9
20260510151243 15 164 3.2 3.2 0.00 0.00 0.00 91 1014.1
20260510150738 15 148 1.6 3.2 0.00 0.00 0.00 91 1014.0
20260510150234 14 111 0.0 0.0 0.00 0.00 0.00 92 1014.1
20260510145725 14 145 1.6 1.6 0.00 0.00 0.00 92 1014.2
20260510145221 13 120 0.0 0.0 0.00 0.00 0.00 94 1014.1
20260510144717 13 118 0.0 0.0 0.00 0.00 0.00 94 1013.9
20260510144214 13 117 0.0 0.0 0.00 0.00 0.00 95 1014.1
20260510143709 13 117 0.0 0.0 0.00 0.00 0.00 95 1014.1
20260510143205 13 168 0.0 0.0 0.00 0.00 0.00 96 1013.9
20260510142702 13 130 1.6 1.6 0.00 0.00 0.00 97 1014.2
20260510142158 13 120 0.0 0.0 0.00 0.00 0.00 98 1014.1
20260510141655 12 132 0.0 0.0 0.00 0.00 0.00 99 1013.8
20260510141154 12 174 0.0 1.6 0.00 0.00 0.00 99 1014.0
20260510140650 12 124 0.0 0.0 0.00 0.00 0.00 99 1013.9
20260510140149 12 108 0.0 0.0 0.00 0.00 0.00 99 1014.0
20260510135644 12 133 0.0 0.0 0.00 0.00 0.00 99 1013.9
20260510135141 12 121 0.0 0.0 0.00 0.00 0.00 99 1013.8
20260510134638 12 133 0.0 0.0 0.00 0.00 0.00 99 1013.8
20260510134135 12 152 0.0 0.0 0.00 0.00 0.00 99 1013.6
20260510133632 12 147 0.0 0.0 0.00 0.00 0.00 99 1013.7
20260510133126 12 118 0.0 0.0 0.00 0.00 0.00 99 1013.7
20260510132624 12 162 0.0 1.6 0.00 0.00 0.00 99 1013.6
20260510132121 12 132 0.0 0.0 0.00 0.00 0.00 99 1013.6
20260510131618 12 117 0.0 0.0 0.00 0.00 0.00 99 1013.8
20260510131115 12 131 0.0 0.0 0.00 0.00 0.00 99 1013.6
20260510130612 11 108 0.0 0.0 0.00 0.00 0.00 99 1013.4
20260510130110 11 127 0.0 0.0 0.00 0.00 0.00 99 1013.2
20260510125605 11 135 0.0 0.0 0.00 0.00 0.00 99 1013.3
20260510125102 11 130 0.0 0.0 0.00 0.00 0.00 99 1013.3
20260510124559 11 119 0.0 0.0 0.00 0.00 0.00 99 1013.5
20260510124056 11 128 0.0 0.0 0.00 0.00 0.00 99 1013.4
20260510123551 11 125 0.0 0.0 0.00 0.00 0.00 99 1013.4
20260510123047 11 121 0.0 0.0 0.00 0.00 0.00 99 1013.4
20260510122543 11 118 0.0 0.0 0.00 0.00 0.00 99 1013.1
20260510122039 11 124 0.0 0.0 0.00 0.00 0.00 99 1013.1
20260510121537 11 133 0.0 0.0 0.00 0.00 0.00 99 1012.9
20260510121034 11 120 0.0 0.0 0.00 0.00 0.00 99 1013.0
20260510120532 11 123 0.0 0.0 0.00 0.00 0.00 99 1013.0
20260510120027 11 126 0.0 0.0 0.00 0.00 0.00 99 1013.0
20260510115524 11 129 0.0 0.0 0.00 0.00 0.00 99 1013.1
20260510115021 11 129 0.0 0.0 0.00 0.00 0.00 99 1013.2
20260510114517 11 123 0.0 0.0 0.00 0.00 0.00 99 1013.0
20260510114013 11 123 0.0 0.0 0.00 0.00 0.00 99 1013.0
20260510113508 11 125 0.0 0.0 0.00 0.00 0.00 99 1013.0
20260510113006 11 127 0.0 0.0 0.00 0.00 0.00 99 1012.6
20260510112503 11 134 0.0 0.0 0.00 0.00 0.00 99 1012.7
20260510111959 11 120 0.0 0.0 0.00 0.00 0.00 99 1012.7
20260510111455 11 126 0.0 0.0 0.00 0.00 0.00 99 1012.6
20260510110951 10 123 0.0 0.0 0.00 0.00 0.00 99 1012.4
20260510110448 10 123 0.0 0.0 0.00 0.00 0.00 99 1012.3
20260510105944 10 119 0.0 0.0 0.00 0.00 0.00 99 1012.4
20260510105439 10 111 0.0 0.0 0.00 0.00 0.00 99 1012.2
20260510104934 10 120 0.0 0.0 0.00 0.00 0.00 99 1012.1
20260510104431 10 123 0.0 0.0 0.00 0.00 0.00 99 1012.2
20260510103928 10 125 0.0 0.0 0.00 0.00 0.00 99 1012.3
20260510103425 10 124 0.0 0.0 0.00 0.00 0.00 99 1012.0
20260510102920 10 121 0.0 0.0 0.00 0.00 0.00 99 1012.3
20260510102416 10 126 0.0 0.0 0.00 0.00 0.00 99 1012.3
20260510101914 10 124 0.0 0.0 0.00 0.00 0.00 99 1012.2
20260510101411 10 127 0.0 0.0 0.00 0.00 0.00 99 1012.3
20260510100909 10 126 0.0 0.0 0.00 0.00 0.00 99 1012.1
20260510100406 10 125 0.0 0.0 0.00 0.00 0.00 99 1012.0
20260510095902 10 130 0.0 0.0 0.00 0.00 0.00 99 1012.0
20260510095356 10 128 0.0 0.0 0.00 0.00 0.00 99 1012.2
20260510094856 10 134 0.0 0.0 0.00 0.00 0.00 99 1011.9
20260510094352 10 123 0.0 0.0 0.00 0.00 0.00 99 1012.0
20260510093848 10 128 0.0 0.0 0.00 0.00 0.00 99 1012.4
20260510093344 10 132 0.0 0.0 0.00 0.00 0.00 99 1012.3
20260510092840 10 121 0.0 0.0 0.00 0.00 0.00 99 1012.4
20260510092337 10 128 0.0 0.0 0.00 0.00 0.00 99 1012.4
20260510091832 11 128 0.0 0.0 0.00 0.00 0.00 99 1012.3
20260510091330 11 126 0.0 0.0 0.00 0.00 0.00 99 1012.2
20260510090826 11 136 0.0 0.0 0.00 0.00 0.00 99 1012.5
20260510090323 11 128 0.0 0.0 0.00 0.00 0.00 99 1012.3
20260510085818 11 133 0.0 0.0 0.00 0.00 0.00 99 1012.4
20260510085313 11 123 0.0 0.0 0.00 0.00 0.00 99 1012.6
20260510084809 11 128 0.0 0.0 0.00 0.00 0.00 99 1012.5
20260510084306 11 131 0.0 0.0 0.00 0.00 0.00 99 1012.5
20260510083803 11 145 1.6 1.6 0.00 0.00 0.00 99 1012.4
20260510083300 10 125 0.0 0.0 0.00 0.00 0.00 99 1012.5
20260510082755 10 123 0.0 0.0 0.00 0.00 0.00 99 1012.6
20260510082252 10 120 0.0 0.0 0.00 0.00 0.00 99 1012.5
20260510081750 10 120 0.0 0.0 0.00 0.00 0.00 99 1012.7
20260510081247 10 133 0.0 0.0 0.00 0.00 0.00 99 1012.5
20260510080743 10 87 0.0 1.6 0.00 0.00 0.00 99 1012.7
20260510080238 10 119 0.0 0.0 0.00 0.00 0.00 99 1012.8
20260510075735 10 148 0.0 1.6 0.00 0.00 0.00 99 1012.5
20260510075233 10 35 0.0 0.0 0.00 0.00 0.00 99 1012.6
20260510074730 10 117 0.0 0.0 0.00 0.00 0.00 99 1012.3
20260510074226 10 103 0.0 1.6 0.00 0.00 0.00 99 1012.0
20260510073722 10 125 0.0 0.0 0.00 0.00 0.00 99 1011.6
20260510073218 10 127 0.0 0.0 0.00 0.00 0.00 99 1011.9
20260510072714 10 125 0.0 0.0 0.00 0.00 0.00 99 1011.6
20260510072211 10 127 0.0 0.0 0.00 0.00 0.00 99 1011.8
20260510071708 10 124 0.0 0.0 0.00 0.00 0.00 99 1011.7
20260510071205 10 119 0.0 0.0 0.00 0.00 0.00 99 1011.7
20260510070702 10 122 0.0 0.0 0.00 0.00 0.00 99 1011.9
20260510070159 10 119 0.0 0.0 0.00 0.00 0.00 99 1011.8
20260510065654 10 123 0.0 0.0 0.00 0.00 0.00 99 1012.0
20260510065151 10 120 0.0 0.0 0.00 0.00 0.00 99 1012.2
20260510064647 10 117 0.0 0.0 0.00 0.00 0.00 99 1012.0
20260510064145 10 121 0.0 0.0 0.00 0.00 0.00 99 1012.0
20260510063642 10 122 0.0 0.0 0.00 0.00 0.00 99 1012.1
20260510063138 10 126 0.0 0.0 0.00 0.00 0.00 99 1012.1
20260510062634 10 122 0.0 0.0 0.00 0.00 0.00 99 1012.3
20260510062130 10 121 0.0 0.0 0.00 0.00 0.00 99 1012.3
20260510061626 10 117 0.0 0.0 0.00 0.00 0.00 99 1012.1
20260510061124 10 121 0.0 0.0 0.00 0.00 0.00 99 1012.2
20260510060619 10 120 0.0 0.0 0.00 0.00 0.00 99 1012.1
20260510060116 10 124 0.0 0.0 0.00 0.00 0.00 99 1012.0
20260510055612 10 126 0.0 0.0 0.00 0.00 0.00 99 1011.8
20260510055110 10 127 0.0 0.0 0.00 0.00 0.00 99 1012.0
20260510054606 10 119 0.0 0.0 0.00 0.00 0.00 99 1011.8
20260510054101 10 123 0.0 0.0 0.00 0.00 0.00 99 1011.7
20260510053601 10 121 0.0 0.0 0.00 0.00 0.00 99 1011.8
20260510053058 10 122 0.0 0.0 0.00 0.00 0.00 99 1011.9
20260510052554 10 122 0.0 0.0 0.00 0.00 0.00 99 1011.8
20260510052050 10 118 0.0 0.0 0.00 0.00 0.00 99 1012.0
20260510051546 10 123 0.0 0.0 0.00 0.00 0.00 99 1011.7
20260510051042 10 121 0.0 0.0 0.00 0.00 0.00 99 1011.9
20260510050539 10 121 0.0 0.0 0.00 0.00 0.00 99 1011.9
20260510050036 10 124 0.0 0.0 0.00 0.00 0.00 99 1011.9
20260510045534 10 122 0.0 0.0 0.00 0.00 0.00 99 1012.0
20260510045029 10 122 0.0 0.0 0.00 0.00 0.00 99 1011.6
20260510044526 10 122 0.0 0.0 0.00 0.00 0.00 99 1012.0
20260510044024 10 122 0.0 0.0 0.00 0.00 0.00 99 1011.9
20260510043520 10 121 0.0 0.0 0.00 0.00 0.00 99 1012.0
20260510043014 10 128 0.0 0.0 0.00 0.00 0.00 99 1011.8
20260510042509 10 123 0.0 0.0 0.00 0.00 0.00 99 1011.8
20260510042005 11 125 0.0 0.0 0.00 0.00 0.00 99 1011.9
20260510041502 11 126 0.0 0.0 0.00 0.00 0.00 99 1011.9
20260510041000 11 131 0.0 0.0 0.00 0.00 0.00 99 1012.1
20260510040456 11 124 0.0 0.0 0.00 0.00 0.00 99 1012.0
20260510035952 11 123 0.0 0.0 0.00 1.27 1.27 99 1011.9
20260510035449 11 116 0.0 0.0 0.00 1.27 1.27 99 1011.7
20260510034948 11 121 0.0 0.0 0.00 1.27 1.27 99 1011.8
20260510034447 11 127 0.0 0.0 0.00 1.27 1.27 99 1011.5
20260510033943 11 120 0.0 0.0 0.00 1.27 1.27 99 1011.3
20260510033438 11 120 0.0 0.0 0.00 1.27 1.27 99 1011.3
20260510032936 11 120 0.0 0.0 0.00 1.27 1.27 99 1011.5
20260510032433 11 122 0.0 0.0 0.00 1.27 1.27 99 1011.5
20260510031928 11 121 0.0 0.0 0.00 1.27 1.27 99 1011.6
20260510031424 11 120 0.0 0.0 0.00 1.27 1.27 99 1011.5
20260510030919 11 117 0.0 0.0 0.00 1.27 1.27 99 1011.7
20260510030415 11 122 0.0 0.0 0.00 1.27 1.27 99 1011.6
20260510025913 11 125 0.0 0.0 0.00 1.27 1.27 99 1011.6
20260510025410 11 121 0.0 0.0 0.00 1.27 1.27 99 1012.0
20260510024908 11 122 0.0 0.0 0.00 1.27 1.27 99 1011.8
20260510024404 11 125 0.0 0.0 0.00 1.27 1.27 99 1011.9
20260510023900 11 123 0.0 0.0 0.00 1.27 1.27 99 1012.1
20260510023356 10 124 0.0 0.0 0.00 1.27 1.27 99 1012.0
20260510022854 10 124 0.0 0.0 0.00 1.27 1.27 99 1012.0
20260510022353 10 122 0.0 0.0 0.00 1.27 1.27 99 1011.8
20260510021852 10 124 0.0 0.0 0.00 1.27 1.27 99 1011.6
20260510021350 10 125 0.0 0.0 0.00 1.27 1.27 99 1011.7
20260510020846 10 121 0.0 0.0 0.00 1.27 1.27 99 1011.7
20260510020346 10 122 0.0 0.0 0.00 1.27 1.27 99 1011.7
20260510015842 10 121 0.0 0.0 0.00 1.27 1.27 99 1011.9
20260510015338 10 124 0.0 0.0 0.00 1.27 1.27 99 1011.9
20260510014834 10 123 0.0 0.0 0.00 1.27 1.27 99 1011.9
20260510014331 10 122 0.0 0.0 0.00 1.27 1.27 99 1011.5
20260510013827 10 121 0.0 0.0 0.00 1.27 1.27 99 1011.5
20260510013323 10 124 0.0 0.0 0.00 1.27 1.27 99 1011.5
20260510012818 10 125 0.0 0.0 0.00 1.27 1.27 99 1011.5
20260510012318 10 124 0.0 0.0 0.00 1.27 1.27 99 1011.5
20260510011813 10 119 0.0 0.0 0.00 1.27 1.27 99 1011.1
20260510011308 10 126 0.0 0.0 0.00 1.27 1.27 99 1011.0
20260510010805 10 127 0.0 0.0 0.00 1.27 1.27 99 1011.1
20260510010302 10 122 0.0 0.0 0.00 1.27 1.27 99 1011.1
20260510005759 10 121 0.0 0.0 0.00 1.27 1.27 99 1011.0
20260510005255 10 122 0.0 0.0 0.00 1.27 1.27 99 1010.8
20260510004753 10 121 0.0 0.0 0.00 1.27 1.27 99 1010.9
20260510004251 10 126 0.0 0.0 0.00 1.27 1.27 99 1011.1
20260510003748 10 125 0.0 0.0 0.00 1.27 1.27 99 1010.9
20260510003244 11 125 0.0 0.0 0.00 1.27 1.27 99 1011.1
20260510002743 11 122 0.0 0.0 0.00 1.27 1.27 99 1011.1
20260510002241 11 127 0.0 0.0 0.00 1.27 1.27 99 1011.0
20260510001738 11 121 0.0 0.0 0.00 1.27 1.27 99 1011.1
20260510001236 11 120 0.0 0.0 0.00 1.27 1.27 99 1011.3
20260510000731 11 121 0.0 0.0 0.00 1.27 1.27 99 1011.0
20260510000229 11 122 0.0 0.0 0.00 1.27 1.27 99 1010.6
20260509235725 11 127 0.0 0.0 0.00 1.27 1.27 99 1010.7
20260509235222 11 123 0.0 0.0 0.00 1.27 1.27 99 1010.9
20260509234718 11 123 0.0 0.0 0.00 1.27 1.27 99 1010.7
20260509234215 11 125 0.0 0.0 0.00 1.27 1.27 99 1010.8
20260509233713 12 121 0.0 0.0 0.00 1.27 1.27 99 1010.6
20260509233211 12 127 0.0 0.0 0.00 1.27 1.27 99 1010.5
20260509232707 12 129 0.0 0.0 0.00 1.27 1.27 99 1010.7
20260509232204 12 124 0.0 0.0 0.00 1.27 1.27 99 1010.8
20260509231700 12 128 0.0 0.0 0.00 1.27 1.27 99 1010.8
20260509231158 12 122 0.0 0.0 0.00 1.27 1.27 99 1010.9
20260509230655 12 123 0.0 0.0 0.00 1.27 1.27 99 1011.1
20260509230151 12 122 0.0 0.0 0.00 1.27 1.27 99 1010.9
20260509225647 12 127 0.0 0.0 0.00 1.27 1.27 99 1010.8
20260509225143 12 123 0.0 0.0 0.00 1.27 1.27 99 1010.8
20260509224639 12 127 0.0 0.0 0.00 1.27 1.27 99 1010.7
20260509224136 12 118 0.0 0.0 0.00 1.27 1.27 99 1010.8
20260509223632 12 130 0.0 0.0 0.00 1.27 1.27 99 1011.0
20260509223130 12 132 0.0 0.0 0.00 1.27 1.27 99 1011.0
20260509222626 12 123 0.0 0.0 0.00 1.27 1.27 99 1010.9
20260509222122 12 126 0.0 0.0 0.00 1.27 1.27 99 1011.1
20260509221618 12 127 0.0 0.0 0.00 1.27 1.27 99 1011.3
20260509221114 12 127 0.0 0.0 0.18 1.27 1.27 99 1011.1
20260509220610 11 120 0.0 0.0 0.36 1.27 1.27 99 1011.1
20260509220107 12 122 0.0 0.0 0.30 1.24 1.24 99 1011.1
20260509215602 11 124 0.0 0.0 0.61 1.22 1.22 99 1011.1
20260509215100 11 132 0.0 0.0 0.79 1.19 1.19 99 1011.6
20260509214556 12 140 0.0 0.0 0.79 1.09 1.09 99 1011.7
20260509214053 11 126 0.0 0.0 0.79 1.04 1.04 99 1011.6
20260509213549 12 116 0.0 0.0 0.48 0.97 0.97 99 1011.8
20260509213046 12 113 0.0 0.0 0.48 0.91 0.91 99 1011.5
20260509212543 12 127 0.0 0.0 0.89 0.89 0.89 99 1011.2
20260509212041 12 123 0.0 0.0 0.48 0.81 0.81 99 1011.5
20260509211536 12 121 0.0 0.0 0.30 0.74 0.74 99 1011.5
20260509211033 12 120 0.0 0.0 0.43 0.74 0.74 99 1011.1
20260509210530 12 125 0.0 0.0 0.48 0.69 0.69 99 1011.7
20260509210026 12 126 0.0 0.0 0.48 0.64 0.64 99 1011.5
20260509205520 12 125 0.0 0.0 0.30 0.58 0.58 99 1011.8
20260509205016 12 128 0.0 0.0 0.43 0.56 0.56 99 1011.8
20260509204513 12 129 0.0 0.0 0.48 0.53 0.53 98 1011.8
20260509204009 12 126 0.0 0.0 0.30 0.46 0.46 98 1012.2
20260509203504 12 119 0.0 0.0 0.18 0.43 0.43 98 1012.3
20260509203003 12 134 0.0 0.0 0.13 0.41 0.41 97 1012.0
20260509202458 12 125 0.0 0.0 0.13 0.41 0.41 97 1011.7
20260509201953 12 132 0.0 0.0 0.00 0.38 0.38 96 1012.1
20260509201448 12 133 0.0 0.0 0.18 0.38 0.38 95 1011.8
20260509200946 12 108 0.0 0.0 0.18 0.38 0.38 95 1011.7
20260509200441 13 114 0.0 1.6 0.00 0.36 0.36 97 1011.6
20260509195937 13 132 0.0 0.0 0.00 0.36 0.36 97 1011.3
20260509195433 13 121 0.0 0.0 0.00 0.36 0.36 96 1011.5
20260509194932 13 122 0.0 0.0 0.00 0.36 0.36 97 1011.7
20260509194428 13 123 0.0 0.0 0.00 0.36 0.36 97 1011.6
20260509193926 13 118 0.0 0.0 0.00 0.36 0.36 97 1011.7
20260509193425 13 125 0.0 0.0 0.00 0.36 0.36 97 1011.9
20260509192921 13 127 0.0 0.0 0.00 0.36 0.36 97 1011.6
20260509192418 13 127 0.0 0.0 0.00 0.36 0.36 97 1011.9
20260509191913 13 130 0.0 0.0 0.13 0.36 0.36 97 1011.9
20260509191408 13 132 0.0 0.0 0.13 0.36 0.36 96 1012.0